KE0SWK-13 Weather Reports


time (UTC)temp
C
wind
direction
speed
KPH
gust
KPH
rain 1hr
cm
rain 24hr
cm
rain mn
cm
humidity
%
barometer
mb
20260510203524 20 265 6.4 9.7 0.00 0.00 0.00 31 1023.1
20260510202542 19 130 8.0 12.9 0.00 0.00 0.00 31 1023.2
20260510201521 20 206 8.0 12.9 0.00 0.00 0.00 31 1023.3
20260510200548 20 273 6.4 12.9 0.00 0.00 0.00 34 1023.3
20260510195544 20 257 6.4 11.3 0.00 0.00 0.00 34 1023.2
20260510194525 20 259 8.0 12.9 0.00 0.00 0.00 33 1023.3
20260510193539 20 304 8.0 12.9 0.00 0.00 0.00 33 1023.3
20260510192545 20 225 6.4 9.7 0.00 0.00 0.00 32 1023.3
20260510191531 20 267 9.7 14.5 0.00 0.00 0.00 32 1023.3
20260510190541 20 83 6.4 11.3 0.00 0.00 0.00 34 1023.2
20260510185528 20 98 8.0 11.3 0.00 0.00 0.00 34 1023.1
20260510184533 20 197 6.4 9.7 0.00 0.00 0.00 34 1023.2
20260510183523 20 282 8.0 12.9 0.00 0.00 0.00 33 1023.2
20260510182549 20 214 8.0 12.9 0.00 0.00 0.00 31 1023.3
20260510181523 20 12 9.7 12.9 0.00 0.00 0.00 32 1023.4
20260510180524 21 237 8.0 12.9 0.00 0.00 0.00 31 1023.2
20260510175520 20 157 11.3 19.3 0.00 0.00 0.00 32 1023.2
20260510174519 19 129 9.7 12.9 0.00 0.00 0.00 33 1023.3
20260510173545 19 228 9.7 14.5 0.00 0.00 0.00 32 1023.3
20260510172525 17 340 8.0 11.3 0.00 0.00 0.00 35 1023.3
20260510171521 18 163 11.3 22.5 0.00 0.00 0.00 33 1023.2
20260510170523 18 138 12.9 17.7 0.00 0.00 0.00 32 1023.1
20260510165553 18 342 11.3 17.7 0.00 0.00 0.00 34 1023.2
20260510164519 20 231 11.3 20.9 0.00 0.00 0.00 32 1023.1
20260510163529 18 74 12.9 17.7 0.00 0.00 0.00 34 1022.7
20260510162535 18 140 11.3 19.3 0.00 0.00 0.00 34 1022.7
20260510161524 19 251 11.3 17.7 0.00 0.00 0.00 33 1022.7
20260510160532 20 232 11.3 16.1 0.00 0.00 0.00 32 1022.7
20260510155542 18 249 11.3 20.9 0.00 0.00 0.00 35 1022.6
20260510154526 18 61 8.0 17.7 0.00 0.00 0.00 36 1022.6
20260510153539 18 156 6.4 11.3 0.00 0.00 0.00 38 1022.4
20260510152521 16 123 8.0 11.3 0.00 0.00 0.00 40 1022.4
20260510151527 16 163 9.7 14.5 0.00 0.00 0.00 40 1022.4
20260510150525 16 126 8.0 12.9 0.00 0.00 0.00 40 1022.7
20260510145523 16 254 8.0 12.9 0.00 0.00 0.00 39 1022.6
20260510144522 16 102 9.7 12.9 0.00 0.00 0.00 39 1022.9
20260510143530 17 290 8.0 14.5 0.00 0.00 0.00 39 1022.9
20260510142520 16 126 8.0 12.9 0.00 0.00 0.00 39 1022.9
20260510141530 16 199 8.0 12.9 0.00 0.00 0.00 41 1022.8
20260510140520 16 212 8.0 12.9 0.00 0.00 0.00 40 1022.6
20260510135526 16 111 9.7 14.5 0.00 0.00 0.00 40 1022.3
20260510134532 17 199 8.0 11.3 0.00 0.00 0.00 39 1022.2
20260510133542 17 41 8.0 11.3 0.00 0.00 0.00 41 1021.7
20260510132550 16 38 9.7 14.5 0.00 0.00 0.00 42 1021.5
20260510131519 16 285 11.3 17.7 0.00 0.00 0.00 42 1021.3
20260510130523 16 136 8.0 19.3 0.00 0.00 0.00 44 1021.2
20260510125609 15 286 9.7 12.9 0.00 0.00 0.00 44 1020.9
20260510124535 15 117 9.7 12.9 0.00 0.00 0.00 46 1020.6
20260510123545 15 93 9.7 12.9 0.00 0.00 0.00 46 1020.3
20260510122521 15 124 8.0 12.9 0.00 0.00 0.00 48 1020.3
20260510121520 14 72 8.0 11.3 0.00 0.00 0.00 51 1020.4
20260510120539 13 108 4.8 9.7 0.00 0.00 0.00 51 1020.3
20260510115547 13 322 8.0 11.3 0.00 0.00 0.00 51 1020.0
20260510114522 13 259 6.4 9.7 0.00 0.00 0.00 52 1020.1
20260510113525 13 71 4.8 8.0 0.00 0.00 0.00 53 1019.8
20260510112537 13 85 3.2 6.4 0.00 0.00 0.00 57 1019.7
20260510111523 13 331 1.6 4.8 0.00 0.00 0.00 57 1019.8
20260510110530 13 257 3.2 4.8 0.00 0.00 0.00 56 1019.4
20260510105522 13 75 1.6 4.8 0.00 0.00 0.00 57 1019.0
20260510104527 14 94 4.8 8.0 0.00 0.00 0.00 58 1019.0
20260510103531 14 12 3.2 9.7 0.00 0.00 0.00 59 1019.0
20260510102541 14 190 4.8 8.0 0.00 0.00 0.00 61 1018.7
20260510101526 14 254 4.8 8.0 0.00 0.00 0.00 61 1018.6
20260510100522 15 2 4.8 11.3 0.00 0.00 0.00 60 1018.3
20260510095522 15 141 6.4 8.0 0.00 0.00 0.00 61 1018.3
20260510094519 15 133 4.8 9.7 0.00 0.00 0.00 59 1018.1
20260510093527 15 200 4.8 8.0 0.00 0.00 0.00 60 1018.0
20260510092524 15 210 8.0 16.1 0.00 0.00 0.00 60 1017.8
20260510091525 15 289 4.8 8.0 0.00 0.00 0.00 64 1017.6
20260510090519 16 237 3.2 6.4 0.00 0.00 0.00 65 1017.4
20260510085525 16 338 3.2 4.8 0.00 0.00 0.00 63 1017.4
20260510084531 16 255 4.8 8.0 0.00 0.03 0.00 63 1017.4
20260510083600 16 291 4.8 6.4 0.00 0.03 0.00 63 1017.3
20260510082528 16 285 3.2 4.8 0.00 0.03 0.00 62 1016.9
20260510081533 16 267 3.2 4.8 0.00 0.03 0.00 62 1016.9
20260510080525 16 109 1.6 4.8 0.00 0.03 0.00 60 1016.6
20260510075548 16 300 3.2 6.4 0.00 0.03 0.00 60 1016.4
20260510074523 17 163 3.2 6.4 0.00 0.03 0.00 59 1016.1
20260510073524 17 44 4.8 8.0 0.00 0.03 0.00 58 1016.2
20260510072520 17 110 4.8 6.4 0.00 0.03 0.00 58 1016.2
20260510071620 17 92 3.2 6.4 0.00 0.03 0.00 58 1016.3
20260510070525 17 316 1.6 4.8 0.00 0.03 0.00 58 1016.4
20260510065525 17 273 3.2 4.8 0.00 0.03 0.00 56 1016.1
20260510064521 17 111 4.8 9.7 0.00 0.03 0.00 56 1015.8
20260510063523 18 84 4.8 9.7 0.00 0.03 0.00 55 1015.8
20260510062533 18 305 3.2 4.8 0.00 0.03 0.00 54 1016.2
20260510061523 18 334 1.6 3.2 0.00 0.03 0.00 54 1016.3
20260510060528 18 347 3.2 4.8 0.00 0.03 0.00 53 1016.0
20260510055556 18 230 3.2 4.8 0.00 0.03 0.00 56 1015.8
20260510054526 17 254 4.8 6.4 0.00 0.03 0.00 60 1015.5
20260510053530 17 69 1.6 4.8 0.00 0.03 0.00 63 1015.5
20260510052520 18 88 1.6 6.4 0.00 0.03 0.00 58 1015.5
20260510051525 17 270 3.2 6.4 0.00 0.03 0.00 60 1015.4
20260510050520 18 304 1.6 3.2 0.00 0.03 0.00 61 1015.0
20260510045521 18 90 3.2 4.8 0.00 0.03 0.03 61 1015.1
20260510044527 18 270 0.0 1.6 0.00 0.03 0.03 61 1015.1
20260510043526 18 21 1.6 3.2 0.00 0.03 0.03 58 1015.1
20260510042523 18 279 1.6 3.2 0.00 0.03 0.03 58 1015.0
20260510041524 18 270 0.0 3.2 0.00 0.03 0.03 57 1015.0
20260510040532 18 0.0 0.0 0.00 0.03 0.03 57 1014.9
20260510035521 18 0.0 1.6 0.00 0.03 0.03 54 1014.6
20260510034530 18 278 1.6 3.2 0.00 0.03 0.03 56 1014.3
20260510033520 17 270 3.2 4.8 0.00 0.03 0.03 58 1014.1
20260510032526 18 0.0 0.0 0.00 0.03 0.03 54 1013.9
20260510031534 18 0.0 0.0 0.00 0.03 0.03 53 1013.8
20260510030524 19 126 0.0 3.2 0.00 0.03 0.03 54 1013.7
20260510025527 20 0.0 0.0 0.00 0.03 0.03 51 1013.5
20260510024521 20 0.0 0.0 0.00 0.03 0.03 47 1013.2
20260510023523 21 225 0.0 1.6 0.00 0.03 0.03 45 1013.1
20260510022519 21 289 3.2 4.8 0.00 0.03 0.03 44 1012.8
20260510021527 21 356 1.6 6.4 0.00 0.03 0.03 43 1012.6
20260510020524 22 260 3.2 6.4 0.00 0.03 0.03 42 1012.3
20260510015524 22 299 4.8 8.0 0.00 0.03 0.03 42 1012.2
20260510014520 23 258 4.8 9.7 0.00 0.03 0.03 42 1012.1
20260510013602 23 284 8.0 14.5 0.00 0.03 0.03 42 1011.7
20260510012532 22 246 9.7 12.9 0.00 0.03 0.03 50 1011.4
20260510011522 23 0.0 0.0 0.00 0.03 0.03 48 1010.7
20260510010528 24 0.0 0.0 0.00 0.03 0.03 47 1010.5
20260510005535 25 0.0 0.0 0.00 0.03 0.03 45 1010.4
20260510004545 25 0.0 0.0 0.00 0.03 0.03 44 1010.3
20260510003532 26 0.0 0.0 0.00 0.03 0.03 41 1010.3
20260510002519 26 0.0 0.0 0.00 0.03 0.03 40 1010.2
20260510001524 26 0.0 0.0 0.00 0.48 0.03 41 1010.2
20260510000520 27 0.0 0.0 0.00 0.48 0.03 43 1010.1
20260509235520 27 0.0 0.0 0.00 0.48 0.03 41 1010.2
20260509234526 27 0.0 0.0 0.00 0.48 0.03 39 1010.2
20260509233525 28 295 0.0 3.2 0.00 0.48 0.03 38 1010.1
20260509232522 28 135 0.0 3.2 0.00 0.48 0.03 38 1010.2
20260509231523 28 162 1.6 4.8 0.00 0.51 0.03 36 1010.1
20260509230531 28 94 1.6 3.2 0.00 0.71 0.03 36 1010.1
20260509225520 29 234 4.8 8.0 0.00 1.09 0.03 33 1010.1
20260509224530 29 87 3.2 3.2 0.00 1.09 0.03 34 1010.0
20260509223519 30 305 1.6 3.2 0.00 1.09 0.03 34 1010.0
20260509222526 30 309 3.2 6.4 0.00 1.09 0.03 33 1010.0
20260509221531 30 340 3.2 4.8 0.00 1.09 0.03 33 1010.0
20260509220540 30 194 4.8 8.0 0.00 1.09 0.03 32 1010.0
20260509215527 30 264 4.8 6.4 0.00 1.09 0.03 34 1010.0
20260509214521 29 109 3.2 4.8 0.00 1.09 0.03 35 1010.0
20260509213522 29 183 1.6 4.8 0.00 1.09 0.03 35 1010.1
20260509212528 28 93 4.8 6.4 0.00 1.09 0.03 34 1010.1
20260509211526 30 140 3.2 4.8 0.00 1.09 0.03 33 1010.1
20260509210524 31 42 4.8 8.0 0.00 1.09 0.03 33 1010.2
20260509205524 30 153 4.8 6.4 0.00 1.09 0.03 33 1010.4
20260509204540 30 77 4.8 8.0 0.00 1.09 0.03 33 1010.5